Weather History for Youngstown, OH

Change the Weather History Date:

Sunday, May 25, 2014

  Actual Average Record
Temperature  
Mean Temperature 62 °F 60 °F  
Max Temperature 78 °F 71 °F 94 °F (1932)
Min Temperature 45 °F 49 °F 30 °F (1956)
Degree Days  
Heating Degree Days 3 6  
Month to date heating degree days 201 220  
Since 1 July heating degree days 6823 6247  
Cooling Degree Days 0 1  
Month to date cooling degree days 37 18  
Year to date cooling degree days 37 27  
Growing Degree Days 12 (Base 50)    
Moisture  
Dew Point 46 °F    
Average Humidity 63    
Maximum Humidity 93    
Minimum Humidity 32    
Precipitation  
Precipitation 0.00 in 0.13 in 1.29 in (1979)
Month to date precipitation 3.46 3.02  
Year to date precipitation 15.00 14.02  
Snow  
Snow 0.00 in 0.00 in - ()
Month to date snowfall T 0.0  
Since 1 July snowfall 90.1 62.7  
Snow Depth 0.00 in    
Sea Level Pressure  
Sea Level Pressure 30.16 in    
Wind  
Wind Speed 3 mph (North)    
Max Wind Speed 14 mph    
Max Gust Speed 16 mph    
Visibility 10 miles    
Events Fog    
T = Trace of Precipitation, MM = Missing Value Source: NWS Daily Summary

Daily Weather History Graph

Daily Weather History Graph

Search for Another Location

Airport:

Trip Planner

Search our weather history database for the weather conditions in past years. The results will help you decide how hot, cold, wet, or windy it might be!

Date:

Astronomy

May. 25, 2014 Rise Set
Actual Time 5:55 AM EDT 8:43 PM EDT
Civil Twilight 5:23 AM EDT 9:16 PM EDT
Nautical Twilight 4:42 AM EDT 9:57 PM EDT
Astronomical Twilight 3:56 AM EDT 10:44 PM EDT
Moon 4:01 AM EDT (5/25) 5:41 PM EDT (5/25)
Length of Visible Light 15h 52m
Length of Day
14h 47m
Waning Crescent, 10% of the Moon is Illuminated
May 25
Waning Crescent
May 28
New
Jun 5
First Quarter
Jun 13
Full
Jun 19
Last Quarter

Hourly Weather History & Observations

Time (EDT) Temp. Dew Point Humidity Pressure Visibility Wind Dir Wind Speed Gust Speed Precip Events Conditions
12:51 AM 48.2 °F 44.6 °F 87% 30.18 in 10.0 mi Calm Calm - N/A   Clear
1:51 AM 50.0 °F 45.0 °F 83% 30.16 in 10.0 mi Calm Calm - N/A   Clear
2:51 AM 48.9 °F 45.0 °F 86% 30.15 in 10.0 mi Calm Calm - N/A   Clear
3:51 AM 48.9 °F 46.0 °F 90% 30.15 in 10.0 mi Calm Calm - N/A   Clear
4:51 AM 48.0 °F 45.0 °F 89% 30.16 in 10.0 mi Calm Calm - N/A   Partly Cloudy
5:51 AM 46.0 °F 43.0 °F 89% 30.17 in 10.0 mi Calm Calm - N/A Fog Shallow Fog
6:51 AM 48.9 °F 45.0 °F 86% 30.19 in 10.0 mi Calm Calm - N/A   Scattered Clouds
7:51 AM 59.0 °F 48.0 °F 67% 30.19 in 10.0 mi Calm Calm - N/A   Scattered Clouds
8:51 AM 64.9 °F 46.9 °F 52% 30.20 in 10.0 mi Calm Calm - N/A   Partly Cloudy
9:51 AM 68.0 °F 44.1 °F 42% 30.20 in 10.0 mi Calm Calm - N/A   Partly Cloudy
10:51 AM 71.6 °F 44.6 °F 38% 30.21 in 10.0 mi Variable 3.5 mph - N/A   Partly Cloudy
11:51 AM 73.9 °F 45.0 °F 35% 30.19 in 10.0 mi Variable 4.6 mph - N/A   Scattered Clouds
12:51 PM 75.0 °F 46.0 °F 36% 30.18 in 10.0 mi North 8.1 mph - N/A   Scattered Clouds
1:51 PM 73.9 °F 45.0 °F 35% 30.17 in 10.0 mi NNW 6.9 mph - N/A   Scattered Clouds
2:51 PM 75.0 °F 44.1 °F 33% 30.16 in 10.0 mi Calm Calm - N/A   Scattered Clouds
3:51 PM 77.0 °F 46.0 °F 33% 30.15 in 10.0 mi NNW 8.1 mph - N/A   Scattered Clouds
4:51 PM 78.1 °F 46.0 °F 32% 30.13 in 10.0 mi North 10.4 mph - N/A   Mostly Cloudy
5:51 PM 78.1 °F 46.0 °F 32% 30.12 in 10.0 mi NNW 8.1 mph - N/A   Scattered Clouds
6:51 PM 77.0 °F 46.0 °F 33% 30.11 in 10.0 mi NNW 6.9 mph - N/A   Scattered Clouds
7:51 PM 73.0 °F 46.9 °F 39% 30.11 in 10.0 mi North 6.9 mph - N/A   Scattered Clouds
8:51 PM 68.0 °F 48.0 °F 49% 30.11 in 10.0 mi NNE 5.8 mph - N/A   Scattered Clouds
9:51 PM 64.9 °F 46.0 °F 50% 30.12 in 10.0 mi NNE 5.8 mph - N/A   Scattered Clouds
10:51 PM 57.0 °F 48.0 °F 72% 30.13 in 10.0 mi East 3.5 mph - N/A   Partly Cloudy
11:51 PM 55.0 °F 48.9 °F 80% 30.12 in 10.0 mi SE 3.5 mph - N/A   Clear